TUBIN
1 48900U 21059X   25237.58050771  .00052198  00000-0  48474-3 0  9995
2 48900  97.6774  53.4664 0002310 296.5206  63.5817 15.67291398232072
LEDSAT
1 49069U 21073D   25237.17268788  .00116227  00000-0  83657-3 0  9998
2 49069  97.3822 322.5120 0007804 164.6820 195.4682 15.73202774223428
CUTE
1 49263U 21088D   25237.19114155  .00021442  00000-0  38150-3 0  9992
2 49263  97.4471 315.8287 0005122 323.1420  36.9478 15.50161334216282
TeikyoSat 4
1 49396U 21102B   25237.13595732  .00001483  00000-0  10046-3 0  9991
2 49396  97.4055 272.7935 0011236 225.6189 134.4120 15.07917735208082
Z-Sat
1 49399U 21102E   25237.58140988  .00003847  00000-0  20898-3 0  9994
2 49399  97.3746 276.8074 0017636 191.4229 168.6606 15.14963701208636
KOSEN 1
1 49402U 21102H   25237.59120866  .00006359  00000-0  28731-3 0  9998
2 49402  97.3644 280.8287 0016261 163.6005 196.5760 15.21181113208992
HO-113
1 50466U 21131B   25237.63483551  .00000408  00000-0  14101-3 0  9995
2 50466  98.5091 326.6099 0003020 260.9955  99.0892 14.40889727192549
SNUGLITE 2
1 52899U 22065F   25237.34916372  .00001033  00000-0  20904-3 0  9997
2 52899  98.1793  18.6249 0006698 225.9833 134.0818 14.63368702167710
UmKA 1 (RS40S)
1 57172U 23091G   25237.58307812  .00005682  00000-0  29755-3 0  9992
2 57172  97.5515 292.5757 0015540  71.3623 288.9295 15.16110170119142
CubeBel-2 (EU11S)
1 57175U 23091K   25237.59757337  .00008381  00000-0  38503-3 0  9997
2 57175  97.5513 294.2305 0013220  77.6814 282.5900 15.20560867119257
ENSO
1 58470U 23185J   25237.61265442  .00079715  00000-0  80431-3 0  9990
2 58470  97.3661 315.6522 0006744 162.1060 198.0439 15.65085021 97046
EIRSAT-1
1 58472U 23185L   25237.61544755  .00590110  15318-3  12683-2 0  9990
2 58472  97.3516 319.6767 0007639 231.7542 128.3048 15.98474788 97314
SONATE-2
1 59112U 24043Q   25237.32517318  .00016236  00000-0  43488-3 0  9998
2 59112  97.5230  10.2056 0010476 195.1927 164.9005 15.38040992 82121
MO-122
1 60209U 24125G   25237.57812535  .00017061  00000-0  44773-3 0  9999
2 60209  97.2706  88.4332 0016756 215.5062 144.5070 15.38564678 63782
GRBBeta
1 60237U 24128C   25237.24895870  .00004370  00000-0  32598-3 0  9991
2 60237  61.9914 172.1217 0056381  73.9859 286.7433 15.03198297 61729
Curium One
1 60242U 24128H   25237.34844700  .00008057  00000-0  54339-3 0  9997
2 60242  61.9812 168.8628 0056315  70.6373 290.0795 15.06092421 61793
ROBUSTA-3A
1 60243U 24128J   25237.24307725  .00007503  00000-0  51477-3 0  9993
2 60243  61.9884 170.3259 0055726  68.1751 292.5257 15.05561713 61769
CatSat
1 60246U 24125J   25237.54710396  .00017212  00000-0  54080-3 0  9999
2 60246  97.2519  86.7079 0041010 177.4735 182.6722 15.32215581 61761
HYPERVIEW-1G (RS66S)
1 61772U 24199AP  25237.57118337  .00020204  00000-0  53455-3 0  9995
2 61772  97.3409 106.3745 0010542 276.2501  83.7543 15.38367800 88780
AO-123
1 61781U 24199AY  25237.61820738  .00006074  00000-0  21599-3 0  9998
2 61781  97.3430 104.3903 0013684 286.4731  73.5006 15.29270080 88656
ZIMSAT 2
1 61783U 24199BA  25237.63154655  .00041647  00000-0  84734-3 0  9995
2 61783  97.3371 107.7582 0009248 266.9373  93.0818 15.46124736 92038
HADES-R (SO-124)
1 62690U 25009CK  25237.18459575  .00038812  00000-0  11676-2 0  9997
2 62690  97.4048 317.9382 0003879 175.3036 184.8244 15.34266106 33878
HYDRA-T
1 62692U 25009CM  25237.15406993  .00040265  00000-0  11958-2 0  9990
2 62692  97.4050 317.9792 0003738 170.6645 189.4668 15.34667222 33871
JINJUSat 1B
1 63210U 25052A   25237.61532148  .00010237  00000-0  44904-3 0  9992
2 63210  97.4302 130.7978 0006070  66.6343 293.5531 15.22143274 24965
NUSHSAT 1
1 63211U 25052B   25237.20035185  .00010988  00000-0  47621-3 0  9999
2 63211  97.4291 130.4139 0006211  71.3692 288.8218 15.22533988 24904
TEVEL2-4
1 63213U 25052D   25237.62498335  .00011078  00000-0  48525-3 0  9992
2 63213  97.4207 130.5877 0005561  83.1844 277.0025 15.22172643 24969
TEVEL2-5
1 63214U 25052E   25237.62684864  .00011045  00000-0  48429-3 0  9994
2 63214  97.4209 130.5857 0005550  83.0306 277.1561 15.22139617 24960
TEVEL2-6
1 63215U 25052F   25237.63100781  .00011180  00000-0  49072-3 0  9992
2 63215  97.4210 130.5827 0005618  83.9502 276.2374 15.22100209 24969
TEVEL2-1
1 63217U 25052H   25237.19336452  .00010530  00000-0  46586-3 0  9996
2 63217  97.4183 130.0457 0005760  93.0679 267.1216 15.21845807 24894
TEVEL2-3
1 63218U 25052J   25237.25927972  .00010648  00000-0  47092-3 0  9990
2 63218  97.4184 130.1122 0005802  93.3617 266.8283 15.21852975 24904
TEVEL2-2
1 63219U 25052K   25237.19402405  .00010377  00000-0  45917-3 0  9996
2 63219  97.4187 130.0461 0005825  93.5149 266.6753 15.21841040 24899
TEVEL2-9
1 63237U 25052AD  25237.25574900  .00010311  00000-0  47314-3 0  9994
2 63237  97.4250 129.9481 0010067 104.1960 256.0394 15.20567985 24888
TEVEL2-7
1 63238U 25052AE  25237.26156836  .00009952  00000-0  45785-3 0  9999
2 63238  97.4250 129.9441 0010125 104.2744 255.9617 15.20487956 24886
TEVEL2-8
1 63239U 25052AF  25237.26516003  .00009799  00000-0  45128-3 0  9996
2 63239  97.4253 129.9380 0010127 104.4411 255.7949 15.20456735 24884
HYDRA-W
1 63490U 25052BL  25237.18739144  .00026022  00000-0  98289-3 0  9993
2 63490  97.4195 130.6887 0013877 101.8060 258.4737 15.26891677 24930
HADES-ICM (SO-125)
1 63492U 25052BN  25237.22915571  .00023267  00000-0  89709-3 0  9995
2 63492  97.4199 130.6461 0014068 104.7406 255.5393 15.26228885 24934
